Weather History for Lamezia Terme, Italy

Change the Weather History Date:

Tuesday, November 19, 2013

  Actual Average Record
Temperature  
Mean Temperature 61 °F -  
Max Temperature 69 °F 59 °F 71 °F (2006)
Min Temperature 53 °F 46 °F 37 °F (2008)
Degree Days  
Heating Degree Days 4    
Growing Degree Days 11 (Base 50)    
Moisture  
Dew Point 56 °F    
Average Humidity 81    
Maximum Humidity 100    
Minimum Humidity 56    
Precipitation  
Precipitation 0.00 in - - ()
Sea Level Pressure  
Sea Level Pressure 29.75 in    
Wind  
Wind Speed 9 mph ()    
Max Wind Speed 18 mph    
Max Gust Speed -    
Visibility 5.7 miles    
Events Rain , Thunderstorm    
Averages and records for this station are not official NWS values.
T = Trace of Precipitation, MM = Missing Value Source: Averaged Metar Reports

Daily Weather History Graph

Daily Weather History Graph

Search for Another Location

Airport:

Trip Planner

Search our weather history database for the weather conditions in past years. The results will help you decide how hot, cold, wet, or windy it might be!

Date:

Astronomy

Nov. 19, 2013 Rise Set
Actual Time 6:42 AM CET 4:38 PM CET
Civil Twilight 6:13 AM CET 5:07 PM CET
Nautical Twilight 5:40 AM CET 5:39 PM CET
Astronomical Twilight 5:09 AM CET 6:11 PM CET
Moon 6:15 PM CET (11/19) 8:06 AM CET (11/19)
Length of Visible Light 10h 53m
Length of Day
9h 56m
Full, 97% of the Moon is Illuminated
Nov 19
Full
Nov 25
Last Quarter
Dec 3
New
Dec 9
First Quarter
Dec 17
Full

Hourly Weather History & Observations

Time (CET) Temp. Dew Point Humidity Pressure Visibility Wind Dir Wind Speed Gust Speed Precip Events Conditions
12:50 AM 66.2 °F 59.0 °F 78% 29.83 in 6.2 mi East 18.4 mph - N/A   Mostly Cloudy
1:50 AM 66.2 °F 59.0 °F 78% 29.83 in 6.2 mi ENE 15.0 mph - N/A Thunderstorm Mostly Cloudy
2:50 AM 64.4 °F 55.4 °F 73% 29.80 in 6.2 mi East 18.4 mph - N/A   Mostly Cloudy
3:50 AM 62.6 °F 57.2 °F 82% 29.80 in 6.2 mi East 13.8 mph - N/A   Partly Cloudy
4:50 AM 60.8 °F 59.0 °F 94% 29.77 in 6.2 mi East 10.4 mph - N/A Rain , Thunderstorm Light Thunderstorms and Rain
5:50 AM 60.8 °F 59.0 °F 94% 29.77 in 3.7 mi ESE 4.6 mph - N/A Rain , Thunderstorm Thunderstorms and Rain
6:50 AM 60.8 °F 59.0 °F 94% 29.71 in 6.2 mi NE 6.9 mph - N/A Rain , Thunderstorm Light Thunderstorms and Rain
7:50 AM 62.6 °F 57.2 °F 82% 29.71 in 6.2 mi NE 10.4 mph - N/A Thunderstorm Scattered Clouds
8:50 AM 62.6 °F 57.2 °F 82% 29.74 in 6.2 mi NE 9.2 mph - N/A   Scattered Clouds
9:50 AM 66.2 °F 59.0 °F 78% 29.74 in 6.2 mi Variable 3.5 mph - N/A   Scattered Clouds
10:50 AM 69.8 °F 60.8 °F 73% 29.74 in 6.2 mi Variable 2.3 mph - N/A   Scattered Clouds
11:50 AM 69.8 °F 53.6 °F 56% 29.71 in 6.2 mi WSW 13.8 mph - N/A   Scattered Clouds
12:50 PM 69.8 °F 55.4 °F 60% 29.71 in 6.2 mi West 12.7 mph - N/A   Partly Cloudy
1:50 PM 68.0 °F 55.4 °F 64% 29.71 in 6.2 mi West 11.5 mph - N/A   Partly Cloudy
2:50 PM 68.0 °F 57.2 °F 68% 29.71 in 4.3 mi WSW 9.2 mph - N/A   Partly Cloudy
3:50 PM 66.2 °F 55.4 °F 68% 29.74 in 4.3 mi WSW 6.9 mph - N/A   Scattered Clouds
5:50 PM 60.8 °F 55.4 °F 82% 29.74 in 5.0 mi ENE 4.6 mph - N/A   Scattered Clouds
6:50 PM 57.2 °F 53.6 °F 88% 29.74 in 5.0 mi ENE 4.6 mph - N/A   Scattered Clouds
7:50 PM 57.2 °F 55.4 °F 94% 29.77 in 5.6 mi ENE 4.6 mph - N/A   Scattered Clouds
8:50 PM 57.2 °F 53.6 °F 88% 29.77 in 5.6 mi East 5.8 mph - N/A   Scattered Clouds
9:50 PM 55.4 °F 53.6 °F 94% 29.77 in 5.6 mi East 5.8 mph - N/A   Partly Cloudy
10:50 PM 53.6 °F 53.6 °F 100% 29.77 in 5.6 mi East 5.8 mph - N/A   Partly Cloudy
11:50 PM 53.6 °F 51.8 °F 94% 29.77 in 5.6 mi East 5.8 mph - N/A   Partly Cloudy